Location: Bratsk-Energetik
(56.3300°N, 101.7600°E)
Time: 22:56:48
(UTC+08:00)

ISS - Pass Details

Date: 09 May 2021
Orbit: 417 x 422 km, 51.6° (Epoch: 13 June)

Event Time Altitude Azimuth Distance (km) Brightness Sun altitude
Exits shadow 01:50:36 17° 127° (SE) 1,156 -1.8 -15.9°
Drops below altitude 10° 01:51:59 10° 106° (ESE) 1,508 -1.0 -15.8°
Sets 01:54:27 0° 88° (E) 2,377 0.2 -15.8°
